Flag for Sweden Weather past 2 weeks in Växjö, Sweden

Now
34 °F

Fog.


Feels Like: 28 °F
Forecast: 22 / 37 °F
Wind: 7 mph from Northwest

Location: Vaxjo Airport

Current Time: Jan 27, 2015 at 10:13:19 AM

Latest Report: Jan 27, 2015 at 9:20 AM


Visibility: 4 mi

Pressure: 29.71 "Hg

Humidity: 100%

Dew point: 34 °F

Location of VäxjöLocation

Historic Weather in Växjö — Graph

°F

Växjö temperature yesterday

Maximum temperature yesterday: 36 °F (at 2:20 PM)
Minimum temperature yesterday: 28 °F (at 1:50 AM)
Average temperature yesterday: 32 °F

Past Weeks' High & Low Weather Summary

 TemperatureHumidityPressure
High45 °F (Jan 12, 7:20 PM)100% (Jan 12, 8:50 AM)30.21 "Hg (Jan 12, 8:50 AM)
Low25 °F (Jan 23, 8:50 AM)71% (Jan 16, 1:20 PM)29.24 "Hg (Jan 12, 5:50 PM)
Average33 °F93%29.79 "Hg
* Reported Jan 12 8:20 AM — Jan 27 8:50 AM, Växjö, Weather by CustomWeather, © 2014

Note: Actual official high and low records may vary slightly from our data, if they occured in-between our weather recording intervals... More about our weather records

Advertising

Växjö weather history for previous 24 hours

 ConditionsComfort  
Time TempWeatherWind HumidityBarometerVisibility
8:50 AM
Jan 27
34 °FFog.8 mph100%29.71 "Hg2 mi
8:20 AM34 °FFog.7 mph100%29.68 "Hg2 mi
7:50 AM34 °FFog.6 mph100%29.68 "Hg2 mi
7:20 AM34 °FFog.5 mph100%29.65 "Hg3 mi
6:50 AM34 °FLow clouds.7 mph100%29.65 "HgN/A
6:20 AM34 °FLow clouds.8 mph100%29.62 "HgN/A
5:50 AM34 °FLow clouds.7 mph100%29.62 "HgN/A
5:20 AM34 °FFog.6 mph100%29.62 "Hg4 mi
4:50 AM34 °FFog.6 mph100%29.62 "Hg2 mi
4:20 AM34 °FFog.5 mph100%29.62 "Hg1 mi
3:50 AM34 °FFog.3 mph100%29.62 "Hg1 mi
3:20 AM34 °FDrizzle. Low clouds.3 mph100%29.62 "Hg2 mi
2:50 AM34 °FDrizzle. Low clouds.3 mph93%29.62 "Hg2 mi
2:20 AM34 °FLight rain. Low clouds.3 mph93%29.62 "Hg4 mi
1:50 AM32 °FLight rain. Low clouds.3 mph100%29.62 "Hg4 mi
1:20 AM32 °FLight rain. Low clouds.3 mph100%29.62 "Hg4 mi
12:50 AM34 °FLight rain. Low clouds.5 mph93%29.62 "Hg4 mi
12:20 AM34 °FRain. Low clouds.5 mph93%29.62 "Hg2 mi
11:50 PM
Jan 26
34 °FLight rain. Low clouds.6 mph93%29.62 "Hg3 mi
11:20 PM34 °FLight rain. Low clouds.7 mph93%29.62 "HgN/A
10:50 PM34 °FLight rain. Low clouds.7 mph93%29.62 "HgN/A
10:20 PM34 °FLight rain. Low clouds.7 mph93%29.65 "Hg6 mi
9:53 PM34 °FLight rain. Low clouds.7 mph93%29.65 "HgN/A
9:20 PM34 °FLight snow. Low clouds.8 mph93%29.65 "Hg2 mi
8:50 PM34 °FLight snow. Mostly cloudy.8 mph93%29.65 "Hg3 mi
8:20 PM34 °FLight snow. Mostly cloudy.9 mph93%29.68 "Hg3 mi
7:50 PM34 °FLight snow. Passing clouds.8 mph93%29.68 "Hg2 mi
7:20 PM34 °FLight snow. Low clouds.9 mph93%29.68 "Hg4 mi
6:50 PM34 °FLight snow. Mostly cloudy.9 mph100%29.71 "HgN/A
6:20 PM34 °FSnow. Mostly cloudy.10 mph93%29.71 "Hg2 mi
5:50 PM34 °FSnow. Low clouds.9 mph93%29.74 "Hg2 mi
5:20 PM34 °FLight rain. Low clouds.12 mph100%29.74 "Hg4 mi
4:50 PM34 °FLight rain. Fog.10 mph100%29.74 "Hg4 mi
4:20 PM34 °FLight rain. Fog.12 mph100%29.77 "Hg3 mi
3:50 PM34 °FLight rain. Low clouds.12 mph100%29.77 "Hg6 mi
3:20 PM34 °FLight rain. Fog.13 mph100%29.80 "Hg4 mi
2:50 PM36 °FLight rain. Fog.14 mph93%29.80 "Hg3 mi
2:20 PM36 °FFog.14 mph93%29.83 "Hg3 mi
1:50 PM34 °FLow clouds.13 mph100%29.83 "HgN/A
1:20 PM34 °FFog.12 mph100%29.86 "Hg6 mi
12:50 PM34 °FLight rain. Low clouds.13 mph100%29.89 "Hg2 mi
12:20 PM34 °FFog.12 mph100%29.89 "Hg1 mi
11:50 AM34 °FFog.13 mph100%29.92 "Hg1 mi
11:20 AM34 °FFog.13 mph100%29.95 "Hg1 mi
10:50 AM34 °FFog.10 mph100%29.95 "Hg2 mi
10:20 AM32 °FIce fog.12 mph100%29.98 "Hg2 mi
Weather by CustomWeather, © 2014

See weather overviewHow to use our weather pages